Regional Weather Roundup
Issued by NWS

Home | Current Version | Previous Version | Text Only | Print | Product List | Glossary Off
Versions: 1 2 3 4 5 6 7 8 9 10 11 12 13 14 15 16 17 18 19 20 21 22 23 24 25 26 27 28 29 30 31 32 33 34 35 36 37 38 39 40 41 42 43 44 45 46 47 48 49 50

000
ASUS45 KCYS 202010
RWRWY

WYOMING REGIONAL WEATHER ROUNDUP
NATIONAL WEATHER SERVICE CHEYENNE WY
200 PM MDT THU JUL 20 2017

NOTE:  "FAIR" INDICATES FEW OR NO CLOUDS BELOW 12,000 FEET
WITH NO SIGNIFICANT WEATHER AND/OR OBSTRUCTIONS TO VISIBILITY.

WYZ001-202100-
YELLOWSTONE NATIONAL PARK

CITY           SKY/WX    TMP DP  RH WIND       PRES   REMARKS
LK YELLOWSTONE   N/A     62  57  83 VRB3      30.36S
W YELLOWSTONE  NOT AVBL

$$
WYZ002>013-054>058-071-098>099-202100-
NORTHERN WYOMING

CITY           SKY/WX    TMP DP  RH WIND       PRES   REMARKS
JACKSON        MOSUNNY   84  48  28 S17       30.16F
CODY           FAIR      86  51  29 NE13      30.06F
GREYBULL       FAIR      98  45  16 S9        29.91F HX  94
WORLAND        NOT AVBL
SHERIDAN       NOT AVBL
BUFFALO        NOT AVBL
GILLETTE       NOT AVBL
HULETT         FAIR      95  50  21 SW18G25   30.02F HX  92
NEWCASTLE      FAIR      93  46  20 SE18G25   30.05F

$$
WYZ014>020-022>026-101>103-202100-
CENTRAL WYOMING

CITY           SKY/WX    TMP DP  RH WIND       PRES   REMARKS
BIG PINEY      FAIR      73  55  53 SE14G22   30.25F THUNDER
PINEDALE       FAIR      79  43  27 S8        30.27F
DUBOIS         FAIR      81  37  21 W17       30.22F
LANDER         FAIR      88  53  30 N5        30.09F
RIVERTON       FAIR      89  51  27 VRB5      30.09F
CASPER         FAIR      92  47  21 S10G22    30.10F
DOUGLAS        FAIR      93  49  22 MISG      30.09F HX  90

$$
WYZ021-027>030-104>119-202100-
SOUTHERN WYOMING

CITY           SKY/WX    TMP DP  RH WIND       PRES   REMARKS
EVANSTON       FAIR      81  49  32 SW17G26   30.28F
KEMMERER         N/A     81  45  28 SW10      30.28F
FORT BRIDGER   FAIR      85  47  27 S17       30.30F
ROCK SPRINGS   FAIR      85  41  21 VRB6      30.25F
RAWLINS        FAIR      87  46  24 W15G22    30.26F
SARATOGA       FAIR      82  45  26 W15G23    30.29F
LARAMIE        FAIR      81  46  29 NW12      30.30F
CHEYENNE       FAIR      89  48  24 SE6       30.22F
TORRINGTON     FAIR      89  63  41 SE9       30.08F HX  90
PINE BLUFFS    FAIR      86  52  30 CALM      30.17F

$$



USA.gov is the U.S. government's official web portal to all federal, state and local government web resources and services.